Location: Home
(42.5358°N, 72.7383°W)
Time: 18:22:19
(UTC-05:00)

Tiros 1 - Pass Details

Date: 02 December 2021
Orbit: 629 x 664 km, 48.4° (Epoch: 18 January)

Event Time Altitude Azimuth Distance (km) Brightness Sun altitude
Rises 22:53:12 0° 293° (WNW) 2,951 - -67.3°
Reaches altitude 10° 22:55:35 10° 299° (WNW) 2,046 - -67.5°
Maximum altitude 23:00:11 52° 15° (NNE) 814 - -67.9°
Drops below altitude 10° 23:04:50 10° 92° (E) 2,063 - -68.3°
Sets 23:07:15 0° 98° (E) 2,978 - -68.4°
